Regional Weather Roundup
Issued by NWS Charleston, SC

Current Version | Previous Version | Text Only | Print | Product List | Glossary Off
Versions: 1 2 3 4 5 6 7 8 9 10 11 12 13 14 15 16 17 18 19 20 21 22 23 24 25 26 27 28 29 30 31 32 33 34 35 36 37 38 39 40 41 42 43 44 45 46 47 48 49 50

000
ASUS42 KCHS 220412
RWRCHS

REGIONAL WEATHER ROUNDUP
NATIONAL WEATHER SERVICE CHARLESTON SC
1200 AM EDT TUE AUG 22 2017

NOTE: "FAIR" INDICATES FEW OR NO CLOUDS BELOW 12,000 FEET WITH NO
SIGNIFICANT WEATHER AND/OR OBSTRUCTIONS TO VISIBILITY.

NOT ALL STATIONS ARE QUALITY CONTROLLED. USE DATA WITH CAUTION...
ESPECIALLY DEWPOINT OBSERVATIONS.

SCZ027-030-031-034>040-042>050-220500-
...SOUTHEAST SOUTH CAROLINA...

CITY           SKY/WX    TMP DP  RH WIND       PRES   REMARKS
N CHARLESTON   MOCLDY    75  75 100 N5        30.16S
WATERFRONT PRK   N/A     82  78  88 VRB2      30.00S HX  91
JOHNS ISLAND   FAIR      79  77  94 CALM      30.15F
PINOPOLIS        N/A     81  79  94 N6        30.09S
MONCKS CORNER  FAIR      72  72 100 CALM      30.16S
SUMMERVILLE    NOT AVBL
BEAUFORT MCAS  MOCLDY    78  77  96 N5        30.15S
BEAUFORT ARPT  MOCLDY    79  77  94 N5        30.14F
HILTON HEAD IS MOCLDY    82  77  83 VRB3      30.15S HX  91
WALTERBORO     PTCLDY    73  72  94 CALM      30.17S
ALLENDALE      NOT AVBL

...SOUTHERN MIDLANDS AND PEE DEE...

CITY           SKY/WX    TMP DP  RH WIND       PRES   REMARKS
GEORGETOWN     FAIR      73  73 100 CALM      30.17R
KINGSTREE      FAIR      73  72  94 CALM      30.17S FOG
ORANGEBURG     CLEAR     73  71  93 CALM      30.17F
BARNWELL       FAIR      75  73  94 CALM      30.17F
AIKEN          FAIR      72  72 100 CALM      30.21F
MANNING        FAIR      73  70  88 CALM      30.17S
COLUMBIA       PTCLDY    78  72  81 S3        30.16F
SUMTER         PTCLDY    76  71  83 CALM      30.15S
FLORENCE       PTCLDY    77  76  96 CALM      30.17F
MYRTLE BEACH   NOT AVBL
N MYRTLE BEACH PTCLDY    81  76  84 S6        30.16S

$$

GAZ063-065-086>088-099>101-113>116-118-119-134>141-150-220500-
...SOUTHEAST GEORGIA...

CITY           SKY/WX    TMP DP  RH WIND       PRES   REMARKS
SAVANNAH ARPT  CLOUDY    77  74  90 CALM      30.15S
HUNTER AAF     MOCLDY    77  75  93 NW6       30.12S
FORT STEWART   CLOUDY    76  74  93 CALM      30.13S
STATESBORO     PTCLDY    76  74  95 CALM      30.16R
SYLVANIA         N/A     75  75 100 CALM      30.17S
CLAXTON        FAIR      76  75  99 CALM      30.15S

...CSRA...CENTRAL AND FAR SOUTHEAST GEORGIA...

CITY           SKY/WX    TMP DP  RH WIND       PRES   REMARKS
THOMSON        CLEAR     76  72  88 SW3       30.23S
AUGUSTA-BUSH   PTCLDY    76  73  91 CALM      30.15F
AUGUSTA-DANIEL CLEAR     78  72  81 CALM      30.17F
SWAINSBORO     FAIR      75  75 100 CALM      30.17F
VIDALIA        PTCLDY    75  73  94 CALM      30.17S
EASTMAN        FAIR      76  76 100 CALM      30.19S
HAZLEHURST     FAIR      78  69  74 CALM      30.16R
ALMA           PTCLDY    76  73  91 E3        30.16R
WAYCROSS       CLEAR     75  72  89 CALM      30.16S
JESUP          FAIR      75  72  88 CALM      30.16S
BAXLEY         FAIR      73  73 100 CALM      30.17R
BRUNSWICK      CLEAR     75  72  88 CALM      30.16S
SAINT SIMONS   CLEAR     78  76  93 CALM      30.15S

$$

SCZ027-028-034-036>038-045-046-048>050-GAZ119-141-220500-
...LAKE AND SUPPLEMENTAL COASTAL OBSERVATIONS...

STATION/POSITION TIME  TEMP    WIND        PRES    WAVE   SWELL
                       AIR SEA DIR/SP/G            HT/PER HT/PER/DIR
                 (UTC) (F)     (DEG/KT/KT) (MB)    (FT/S) (FT/S/D)
WINYAH BAY       0245   79     320/  2     1021.0
LAKE MURRAY      0320   81     250/  4/  7 1020.7F
ACE BASIN NERRS  0245   76        CALM     1021.0
FORT PULASKI     0348   81 87  170/  3/  4 1021.0F
SAPELO ISLAND    0300   79        CALM     1021.0

$$

ANZ835-935-AMZ111-154-330-350-352-354-370-450-454-472-220500-
...C-MAN AND BUOY OBSERVATIONS...

STATION/POSITION TIME  TEMP    WIND        PRES    WAVE   SWELL
                       AIR SEA DIR/SP/G            HT/PER HT/PER/DIR
                 (UTC) (F)     (DEG/KT/KT) (MB)    (FT/S) (FT/S/D)
BUOY 41004       0350   83 85  180/  6/  8 1020.7R   3/10   3/140/10
BUOY 41008       0350   82 85  170/  4/  4 1020.9R   2/ 9   2/100/ 9
FOLLY BEACH CMAN 0400   83     150/  5/  6 1021.4F
CAPERS NEARSHORE 0308   81 86  170/  8/ 12 1020.9R
FRIPP NEARSHORE  0308   83     150/  8/ 10 1020.5S


STATION/POSITION TIME  TEMP    WIND        PRES    WAVE   SWELL
                       AIR SEA DIR/SP/G            HT/PER HT/PER/DIR
                 (UTC) (F)     (DEG/KT/KT) (MB)    (FT/S) (FT/S/D)
5E ST. MARYS GA  0300      84                N/A     2/ 9
FRYING PAN BUOY  0350   83 84  160/  8/ 10 1021.1F   2/ 8   2/110/ 8
BUOY 41025       0350   83 84  140/  2/  4 1021.4F   2/ 8   2/120/ 8
CAPE LOOKOUT NC  0300   81     150/  4/  5 1021.3F
BUOY 41002       0350   82 84   90/  4/  8 1022.0F   4/ 9   3/110/ 9
BUOY 41010       0350   85 85  100/ 10/ 14 1020.3F   4/ 8   3/100/ 8
ST AUGUSTINE FL  0400   82 82  160/  8/  9 1020.8F


$$




USA.gov is the U.S. government's official web portal to all federal, state and local government web resources and services.